"Sample Date","Sample Time","Sample Value","Units","Flow Rate","Laser Status","Micron Size 0","Counts/Channel 0","Micron Size 1","Counts/Channel 1","Micron Size 2","Counts/Channel 2","Micron Size 3","Counts/Channel 3","Micron Size 4","Counts/Channel 4","Micron Size 5","Counts/Channel 5","Micron Size 6","Counts/Channel 6","Micron Size 7","Counts/Channel 7","Micron Size 8","Counts/Channel 8","Micron Size 9","Counts/Channel 9","Micron Size 10","Counts/Channel 10","Micron Size 11","Counts/Channel 11","Micron Size 12","Counts/Channel 12","Micron Size 13","Counts/Channel 13","Micron Size 14","Counts/Channel 14","Micron Size 15","Counts/Channel 15","Micron Size 16","Counts/Channel 16","Micron Size 17","Counts/Channel 17","Micron Size 18","Counts/Channel 18","Micron Size 19","Counts/Channel 19","Micron Size 20","Counts/Channel 20","Micron Size 21","Counts/Channel 21","Micron Size 22","Counts/Channel 22","Micron Size 23","Counts/Channel 23","Micron Size 24","Counts/Channel 24","Micron Size 25","Counts/Channel 25","Micron Size 26","Counts/Channel 26","Micron Size 27","Counts/Channel 27","Micron Size 28","Counts/Channel 28","Micron Size 29","Counts/Channel 29","Micron Size 30","Counts/Channel 30","Micron Size 31","Counts/Channel 31"
"03/03/08","22:00:04",60113.000,"cc",28320.063,1,0.100,51506.000,0.200,5278.000,0.300,1403.000,0.500,1378.000,1.000,548.000,5.000,0
"03/03/08","22:00:10",63349.000,"cc",28337.652,1,0.100,54362.000,0.200,5659.000,0.300,1423.000,0.500,1404.000,1.000,501.000,5.000,0
"03/03/08","22:00:16",61785.000,"cc",28321.732,1,0.100,53089.000,0.200,5414.000,0.300,1414.000,0.500,1341.000,1.000,527.000,5.000,0
"03/03/08","22:00:22",53310.000,"cc",28276.289,1,0.100,46109.000,0.200,4229.000,0.300,1192.000,0.500,1301.000,1.000,479.000,5.000,0
"03/03/08","22:00:28",64648.000,"cc",28299.959,1,0.100,56300.000,0.200,5599.000,0.300,1176.000,0.500,1144.000,1.000,429.000,5.000,0
"03/03/08","22:00:34",69665.000,"cc",28372.557,1,0.100,60913.000,0.200,6085.000,0.300,1169.000,0.500,1067.000,1.000,431.000,5.000,0
"03/03/08","22:00:40",68844.000,"cc",28321.744,1,0.100,59830.000,0.200,6168.000,0.300,1194.000,0.500,1202.000,1.000,450.000,5.000,0
"03/03/08","22:00:46",76374.000,"cc",28343.219,1,0.100,66337.000,0.200,7214.000,0.300,1255.000,0.500,1137.000,1.000,431.000,5.000,0
"03/03/08","22:00:52",72216.000,"cc",28343.106,1,0.100,62920.000,0.200,6529.000,0.300,1143.000,0.500,1177.000,1.000,447.000,5.000,0
"03/03/08","22:00:58",68265.000,"cc",28277.869,1,0.100,59278.000,0.200,6167.000,0.300,1220.000,0.500,1163.000,1.000,437.000,5.000,0
"03/03/08","22:01:04",68928.000,"cc",28315.791,1,0.100,59857.000,0.200,6280.000,0.300,1175.000,0.500,1173.000,1.000,443.000,5.000,0
"03/03/08","22:01:10",75475.000,"cc",28307.606,1,0.100,65804.000,0.200,6832.000,0.300,1208.000,0.500,1200.000,1.000,431.000,5.000,0
"03/03/08","22:01:16",79644.000,"cc",28282.201,1,0.100,69236.000,0.200,7530.000,0.300,1269.000,0.500,1199.000,1.000,410.000,5.000,0
"03/03/08","22:01:22",83087.000,"cc",28356.070,1,0.100,72192.000,0.200,8005.000,0.300,1267.000,0.500,1189.000,1.000,434.000,5.000,0
"03/03/08","22:01:28",85090.000,"cc",28315.053,1,0.100,74030.000,0.200,8144.000,0.300,1268.000,0.500,1206.000,1.000,442.000,5.000,0
"03/03/08","22:01:34",96028.000,"cc",28348.617,1,0.100,83078.000,0.200,9853.000,0.300,1419.000,0.500,1189.000,1.000,489.000,5.000,0
"03/03/08","22:01:40",91886.000,"cc",28378.982,1,0.100,79772.000,0.200,9089.000,0.300,1374.000,0.500,1190.000,1.000,461.000,5.000,0
"03/03/08","22:01:46",90489.000,"cc",28314.500,1,0.100,78413.000,0.200,8970.000,0.300,1417.000,0.500,1246.000,1.000,443.000,5.000,0
"03/03/08","22:01:52",90965.000,"cc",28284.088,1,0.100,78816.000,0.200,8988.000,0.300,1425.000,0.500,1256.000,1.000,480.000,5.000,0
"03/03/08","22:01:58",86116.000,"cc",28277.361,1,0.100,74430.000,0.200,8477.000,0.300,1446.000,0.500,1279.000,1.000,484.000,5.000,0
"03/03/08","22:02:04",82102.000,"cc",28306.981,1,0.100,71149.000,0.200,7794.000,0.300,1390.000,0.500,1255.000,1.000,514.000,5.000,0
"03/03/08","22:02:10",80652.000,"cc",28324.586,1,0.100,69775.000,0.200,7616.000,0.300,1491.000,0.500,1300.000,1.000,470.000,5.000,0
"03/03/08","22:02:16",84780.000,"cc",28360.473,1,0.100,73060.000,0.200,8380.000,0.300,1517.000,0.500,1333.000,1.000,490.000,5.000,0
"03/03/08","22:02:22",82716.000,"cc",28327.508,1,0.100,71075.000,0.200,8241.000,0.300,1508.000,0.500,1388.000,1.000,503.000,5.000,1.000
"03/03/08","22:02:28",86248.000,"cc",28249.100,1,0.100,74249.000,0.200,8555.000,0.300,1586.000,0.500,1379.000,1.000,479.000,5.000,0
"03/03/08","22:02:34",79893.000,"cc",28304.781,1,0.100,68797.000,0.200,7668.000,0.300,1511.000,0.500,1412.000,1.000,505.000,5.000,0
"03/03/08","22:02:40",87741.000,"cc",28313.690,1,0.100,75146.000,0.200,8958.000,0.300,1618.000,0.500,1468.000,1.000,551.000,5.000,0
"03/03/08","22:02:46",83672.000,"cc",28335.508,1,0.100,71049.000,0.200,8538.000,0.300,1953.000,0.500,1636.000,1.000,496.000,5.000,0
"03/03/08","22:02:52",88618.000,"cc",28340.535,1,0.100,76341.000,0.200,8959.000,0.300,1493.000,0.500,1303.000,1.000,522.000,5.000,0
"03/03/08","22:02:58",91685.000,"cc",28340.270,1,0.100,79212.000,0.200,9136.000,0.300,1510.000,0.500,1330.000,1.000,497.000,5.000,0
"03/03/08","22:03:04",92334.000,"cc",28208.207,1,0.100,79443.000,0.200,9423.000,0.300,1545.000,0.500,1375.000,1.000,548.000,5.000,0
"03/03/08","22:03:10",90780.000,"cc",28345.113,1,0.100,78322.000,0.200,9307.000,0.300,1402.000,0.500,1275.000,1.000,474.000,5.000,0
"03/03/08","22:03:16",89353.000,"cc",28364.449,1,0.100,77486.000,0.200,8804.000,0.300,1364.000,0.500,1223.000,1.000,476.000,5.000,0
"03/03/08","22:03:22",87488.000,"cc",28355.438,1,0.100,75743.000,0.200,8630.000,0.300,1373.000,0.500,1280.000,1.000,462.000,5.000,0
"03/03/08","22:03:28",80319.000,"cc",28342.012,1,0.100,69176.000,0.200,7786.000,0.300,1510.000,0.500,1326.000,1.000,521.000,5.000,0
"03/03/08","22:03:34",76744.000,"cc",28305.945,1,0.100,65980.000,0.200,7360.000,0.300,1479.000,0.500,1395.000,1.000,530.000,5.000,0
"03/03/08","22:03:40",83972.000,"cc",28258.074,1,0.100,72231.000,0.200,8297.000,0.300,1502.000,0.500,1435.000,1.000,507.000,5.000,0
"03/03/08","22:03:46",86704.000,"cc",28295.121,1,0.100,74592.000,0.200,8635.000,0.300,1547.000,0.500,1427.000,1.000,503.000,5.000,0
"03/03/08","22:03:52",81981.000,"cc",28325.963,1,0.100,70397.000,0.200,8111.000,0.300,1580.000,0.500,1393.000,1.000,500.000,5.000,0
"03/03/08","22:03:58",83293.000,"cc",28334.998,1,0.100,71837.000,0.200,8162.000,0.300,1424.000,0.500,1326.000,1.000,544.000,5.000,0
"03/03/08","22:04:04",77972.000,"cc",28325.242,1,0.100,66915.000,0.200,7694.000,0.300,1457.000,0.500,1422.000,1.000,484.000,5.000,0
"03/03/08","22:04:10",71844.000,"cc",28336.822,1,0.100,61324.000,0.200,6875.000,0.300,1589.000,0.500,1493.000,1.000,563.000,5.000,0
"03/03/08","22:04:16",74220.000,"cc",28320.447,1,0.100,63692.000,0.200,7221.000,0.300,1436.000,0.500,1355.000,1.000,516.000,5.000,0
"03/03/08","22:04:22",76546.000,"cc",28321.684,1,0.100,65675.000,0.200,7500.000,0.300,1444.000,0.500,1406.000,1.000,521.000,5.000,0
"03/03/08","22:04:28",69712.000,"cc",28329.022,1,0.100,59562.000,0.200,6667.000,0.300,1493.000,0.500,1415.000,1.000,575.000,5.000,0
"03/03/08","22:04:34",67894.000,"cc",28269.109,1,0.100,58043.000,0.200,6472.000,0.300,1436.000,0.500,1423.000,1.000,520.000,5.000,0
"03/03/08","22:04:40",63033.000,"cc",28294.059,1,0.100,54208.000,0.200,5670.000,0.300,1301.000,0.500,1378.000,1.000,476.000,5.000,0
"03/03/08","22:04:46",67010.000,"cc",28330.742,1,0.100,57182.000,0.200,6271.000,0.300,1575.000,0.500,1453.000,1.000,529.000,5.000,0
"03/03/08","22:04:52",71081.000,"cc",28279.727,1,0.100,60915.000,0.200,6683.000,0.300,1459.000,0.500,1484.000,1.000,540.000,5.000,0
"03/03/08","22:04:58",76088.000,"cc",28369.166,1,0.100,65365.000,0.200,7310.000,0.300,1444.000,0.500,1439.000,1.000,530.000,5.000,0
"03/03/08","22:05:04",76256.000,"cc",28299.492,1,0.100,65521.000,0.200,7365.000,0.300,1489.000,0.500,1379.000,1.000,502.000,5.000,0
"03/03/08","22:05:10",78509.000,"cc",28303.240,1,0.100,67717.000,0.200,7576.000,0.300,1417.000,0.500,1319.000,1.000,480.000,5.000,0
"03/03/08","22:05:16",78736.000,"cc",28345.301,1,0.100,67792.000,0.200,7691.000,0.300,1466.000,0.500,1340.000,1.000,447.000,5.000,0
"03/03/08","22:05:22",77073.000,"cc",28349.379,1,0.100,66615.000,0.200,7319.000,0.300,1383.000,0.500,1301.000,1.000,455.000,5.000,0
"03/03/08","22:05:28",76534.000,"cc",28274.098,1,0.100,66031.000,0.200,7289.000,0.300,1397.000,0.500,1267.000,1.000,550.000,5.000,0
"03/03/08","22:05:34",69254.000,"cc",28279.928,1,0.100,59798.000,0.200,6314.000,0.300,1340.000,0.500,1295.000,1.000,507.000,5.000,0
"03/03/08","22:05:40",59018.000,"cc",28357.352,1,0.100,50637.000,0.200,5181.000,0.300,1381.000,0.500,1303.000,1.000,516.000,5.000,0
"03/03/08","22:05:46",53602.000,"cc",28326.826,1,0.100,46135.000,0.200,4368.000,0.300,1241.000,0.500,1360.000,1.000,498.000,5.000,0
"03/03/08","22:05:52",49232.000,"cc",28326.791,1,0.100,42429.000,0.200,3792.000,0.300,1257.000,0.500,1259.000,1.000,495.000,5.000,0
"03/03/08","22:05:58",50180.000,"cc",28236.645,1,0.100,42987.000,0.200,3994.000,0.300,1324.000,0.500,1383.000,1.000,492.000,5.000,0
"03/03/08","22:06:04",56180.000,"cc",28324.555,1,0.100,48212.000,0.200,4817.000,0.300,1327.000,0.500,1308.000,1.000,516.000,5.000,0
"03/03/08","22:06:10",51306.000,"cc",28342.051,1,0.100,43357.000,0.200,4322.000,0.300,1571.000,0.500,1516.000,1.000,540.000,5.000,0
"03/03/08","22:06:16",55870.000,"cc",28360.684,1,0.100,46930.000,0.200,5027.000,0.300,1754.000,0.500,1596.000,1.000,563.000,5.000,0
"03/03/08","22:06:22",55937.000,"cc",28278.717,1,0.100,46418.000,0.200,5131.000,0.300,2003.000,0.500,1804.000,1.000,581.000,5.000,0
"03/03/08","22:06:28",54375.000,"cc",28343.512,1,0.100,45021.000,0.200,5041.000,0.300,1896.000,0.500,1804.000,1.000,613.000,5.000,0
"03/03/08","22:06:34",51202.000,"cc",28305.924,1,0.100,43269.000,0.200,4269.000,0.300,1567.000,0.500,1547.000,1.000,550.000,5.000,0
"03/03/08","22:06:40",57872.000,"cc",28258.959,1,0.100,49669.000,0.200,5096.000,0.300,1264.000,0.500,1351.000,1.000,492.000,5.000,0
"03/03/08","22:06:46",58019.000,"cc",28366.787,1,0.100,50121.000,0.200,4929.000,0.300,1191.000,0.500,1307.000,1.000,471.000,5.000,0
"03/03/08","22:06:52",59333.000,"cc",28362.904,1,0.100,51084.000,0.200,5174.000,0.300,1241.000,0.500,1354.000,1.000,480.000,5.000,0
"03/03/08","22:06:58",59391.000,"cc",28293.477,1,0.100,51002.000,0.200,5203.000,0.300,1338.000,0.500,1359.000,1.000,489.000,5.000,0
"03/03/08","22:07:04",59714.000,"cc",28285.053,1,0.100,51428.000,0.200,5190.000,0.300,1306.000,0.500,1286.000,1.000,504.000,5.000,0
"03/03/08","22:07:10",60109.000,"cc",28288.719,1,0.100,52068.000,0.200,4998.000,0.300,1254.000,0.500,1323.000,1.000,466.000,5.000,0
"03/03/08","22:07:16",47082.000,"cc",28381.385,1,0.100,40570.000,0.200,3638.000,0.300,1140.000,0.500,1248.000,1.000,486.000,5.000,0
"03/03/08","22:07:22",45809.000,"cc",28374.930,1,0.100,39519.000,0.200,3470.000,0.300,1222.000,0.500,1152.000,1.000,446.000,5.000,0
"03/03/08","22:07:28",57885.000,"cc",28335.086,1,0.100,50380.000,0.200,4658.000,0.300,1208.000,0.500,1197.000,1.000,442.000,5.000,0
"03/03/08","22:07:34",47368.000,"cc",28268.369,1,0.100,41004.000,0.200,3588.000,0.300,1077.000,0.500,1256.000,1.000,443.000,5.000,0
"03/03/08","22:07:40",55038.000,"cc",28320.371,1,0.100,47635.000,0.200,4489.000,0.300,1200.000,0.500,1236.000,1.000,478.000,5.000,0
"03/03/08","22:07:46",58696.000,"cc",28285.215,1,0.100,50762.000,0.200,4971.000,0.300,1273.000,0.500,1218.000,1.000,472.000,5.000,0
"03/03/08","22:07:52",58333.000,"cc",28341.920,1,0.100,50820.000,0.200,4755.000,0.300,1185.000,0.500,1163.000,1.000,410.000,5.000,0
"03/03/08","22:07:58",58064.000,"cc",28310.473,1,0.100,50424.000,0.200,4776.000,0.300,1162.000,0.500,1283.000,1.000,419.000,5.000,0
"03/03/08","22:08:04",52179.000,"cc",28267.797,1,0.100,44460.000,0.200,4286.000,0.300,1491.000,0.500,1463.000,1.000,479.000,5.000,0
"03/03/08","22:08:10",51434.000,"cc",28365.496,1,0.100,42679.000,0.200,4554.000,0.300,1784.000,0.500,1828.000,1.000,589.000,5.000,0
"03/03/08","22:08:16",48809.000,"cc",28317.139,1,0.100,41498.000,0.200,3871.000,0.300,1485.000,0.500,1418.000,1.000,537.000,5.000,0
"03/03/08","22:08:22",49397.000,"cc",28317.934,1,0.100,41977.000,0.200,3973.000,0.300,1495.000,0.500,1437.000,1.000,515.000,5.000,0
"03/03/08","22:08:28",47671.000,"cc",28350.508,1,0.100,41371.000,0.200,3564.000,0.300,1085.000,0.500,1208.000,1.000,443.000,5.000,0
"03/03/08","22:08:34",46728.000,"cc",28339.481,1,0.100,40294.000,0.200,3349.000,0.300,1267.000,0.500,1342.000,1.000,476.000,5.000,0
"03/03/08","22:08:40",47330.000,"cc",28297.779,1,0.100,40987.000,0.200,3560.000,0.300,1122.000,0.500,1214.000,1.000,447.000,5.000,0
"03/03/08","22:08:46",47846.000,"cc",28317.123,1,0.100,41287.000,0.200,3659.000,0.300,1209.000,0.500,1219.000,1.000,472.000,5.000,0
"03/03/08","22:08:52",44639.000,"cc",28266.859,1,0.100,38354.000,0.200,3294.000,0.300,1256.000,0.500,1307.000,1.000,428.000,5.000,0
"03/03/08","22:08:58",43739.000,"cc",28316.625,1,0.100,38035.000,0.200,3052.000,0.300,1021.000,0.500,1189.000,1.000,442.000,5.000,0
"03/03/08","22:09:04",45038.000,"cc",28334.781,1,0.100,39213.000,0.200,3216.000,0.300,1031.000,0.500,1182.000,1.000,396.000,5.000,0
"03/03/08","22:09:10",48078.000,"cc",28334.199,1,0.100,39937.000,0.200,4066.000,0.300,1761.000,0.500,1745.000,1.000,569.000,5.000,0
"03/03/08","22:09:16",50859.000,"cc",28308.408,1,0.100,42624.000,0.200,4383.000,0.300,1668.000,0.500,1594.000,1.000,590.000,5.000,0
"03/03/08","22:09:22",56862.000,"cc",28356.332,1,0.100,49012.000,0.200,4771.000,0.300,1382.000,0.500,1279.000,1.000,418.000,5.000,0
"03/03/08","22:09:28",63014.000,"cc",28317.172,1,0.100,54693.000,0.200,5473.000,0.300,1201.000,0.500,1219.000,1.000,428.000,5.000,0
"03/03/08","22:09:34",59444.000,"cc",28292.066,1,0.100,51830.000,0.200,4913.000,0.300,1162.000,0.500,1116.000,1.000,423.000,5.000,0
"03/03/08","22:09:40",56837.000,"cc",28290.381,1,0.100,49367.000,0.200,4813.000,0.300,1051.000,0.500,1165.000,1.000,441.000,5.000,0
"03/03/08","22:09:46",55628.000,"cc",28377.633,1,0.100,48336.000,0.200,4407.000,0.300,1189.000,0.500,1235.000,1.000,461.000,5.000,0
"03/03/08","22:09:52",53216.000,"cc",28282.193,1,0.100,43808.000,0.200,4867.000,0.300,2040.000,0.500,1875.000,1.000,626.000,5.000,0
"03/03/08","22:09:58",53462.000,"cc",28351.326,1,0.100,42117.000,0.200,5613.000,0.300,2633.000,0.500,2342.000,1.000,757.000,5.000,0
"03/03/08","22:10:04",52870.000,"cc",28336.318,1,0.100,41996.000,0.200,5229.000,0.300,2640.000,0.500,2261.000,1.000,744.000,5.000,0
"03/03/08","22:10:10",53913.000,"cc",28282.012,1,0.100,44281.000,0.200,5031.000,0.300,2040.000,0.500,1913.000,1.000,648.000,5.000,0
"03/03/08","22:10:16",56338.000,"cc",28277.168,1,0.100,44732.000,0.200,5783.000,0.300,2742.000,0.500,2268.000,1.000,813.000,5.000,0
"03/03/08","22:10:22",54383.000,"cc",28340.223,1,0.100,43723.000,0.200,5335.000,0.300,2443.000,0.500,2113.000,1.000,769.000,5.000,0
"03/03/08","22:10:28",57228.000,"cc",28350.584,1,0.100,43466.000,0.200,6467.000,0.300,3355.000,0.500,2952.000,1.000,988.000,5.000,0
"03/03/08","22:10:34",55945.000,"cc",28306.381,1,0.100,43224.000,0.200,5984.000,0.300,3029.000,0.500,2746.000,1.000,962.000,5.000,0
"03/03/08","22:10:40",50597.000,"cc",28329.283,1,0.100,41099.000,0.200,4699.000,0.300,2278.000,0.500,1930.000,1.000,590.000,5.000,1.000
"03/03/08","22:10:46",51981.000,"cc",28343.949,1,0.100,40952.000,0.200,5260.000,0.300,2666.000,0.500,2342.000,1.000,761.000,5.000,0
"03/03/08","22:10:52",54353.000,"cc",28276.129,1,0.100,42163.000,0.200,5819.000,0.300,2922.000,0.500,2640.000,1.000,809.000,5.000,0
"03/03/08","22:10:58",52098.000,"cc",28302.330,1,0.100,42088.000,0.200,4960.000,0.300,2237.000,0.500,2098.000,1.000,715.000,5.000,0
"03/03/08","22:11:04",47758.000,"cc",28326.147,1,0.100,40248.000,0.200,3855.000,0.300,1622.000,0.500,1535.000,1.000,498.000,5.000,0
"03/03/08","22:11:10",45362.000,"cc",28312.738,1,0.100,38763.000,0.200,3458.000,0.300,1317.000,0.500,1378.000,1.000,446.000,5.000,0
"03/03/08","22:11:16",48950.000,"cc",28243.686,1,0.100,41478.000,0.200,4016.000,0.300,1441.000,0.500,1491.000,1.000,524.000,5.000,0
"03/03/08","22:11:22",51659.000,"cc",28348.984,1,0.100,44035.000,0.200,4197.000,0.300,1474.000,0.500,1444.000,1.000,509.000,5.000,0
"03/03/08","22:11:28",47949.000,"cc",28362.475,1,0.100,40937.000,0.200,3760.000,0.300,1355.000,0.500,1356.000,1.000,541.000,5.000,0
"03/03/08","22:11:34",44758.000,"cc",28276.512,1,0.100,38908.000,0.200,3148.000,0.300,1035.000,0.500,1237.000,1.000,430.000,5.000,0
"03/03/08","22:11:40",48239.000,"cc",28308.217,1,0.100,41900.000,0.200,3567.000,0.300,1096.000,0.500,1220.000,1.000,456.000,5.000,0
"03/03/08","22:11:46",59790.000,"cc",28350.057,1,0.100,51913.000,0.200,5001.000,0.300,1180.000,0.500,1205.000,1.000,491.000,5.000,0
"03/03/08","22:11:52",60756.000,"cc",28335.752,1,0.100,52461.000,0.200,5211.000,0.300,1315.000,0.500,1303.000,1.000,466.000,5.000,0
"03/03/08","22:11:58",56047.000,"cc",28279.080,1,0.100,48031.000,0.200,4721.000,0.300,1459.000,0.500,1343.000,1.000,493.000,5.000,0
"03/03/08","22:12:04",60490.000,"cc",28324.440,1,0.100,51162.000,0.200,5451.000,0.300,1703.000,0.500,1621.000,1.000,553.000,5.000,0
"03/03/08","22:12:10",64123.000,"cc",28314.801,1,0.100,54000.000,0.200,5975.000,0.300,1839.000,0.500,1716.000,1.000,593.000,5.000,0
"03/03/08","22:12:16",67760.000,"cc",28304.254,1,0.100,57961.000,0.200,6265.000,0.300,1585.000,0.500,1443.000,1.000,506.000,5.000,0
"03/03/08","22:12:22",62748.000,"cc",28288.904,1,0.100,52789.000,0.200,5831.000,0.300,1844.000,0.500,1717.000,1.000,567.000,5.000,0
"03/03/08","22:12:28",77410.000,"cc",28306.502,1,0.100,66745.000,0.200,7325.000,0.300,1513.000,0.500,1348.000,1.000,479.000,5.000,0
"03/03/08","22:12:34",58098.000,"cc",28314.988,1,0.100,49001.000,0.200,5268.000,0.300,1639.000,0.500,1634.000,1.000,556.000,5.000,0
"03/03/08","22:12:40",63642.000,"cc",28364.295,1,0.100,54835.000,0.200,5523.000,0.300,1347.000,0.500,1436.000,1.000,501.000,5.000,0
"03/03/08","22:12:46",45122.000,"cc",28286.514,1,0.100,39027.000,0.200,3312.000,0.300,1100.000,0.500,1248.000,1.000,435.000,5.000,0
"03/03/08","22:12:52",47467.000,"cc",28347.309,1,0.100,41204.000,0.200,3390.000,0.300,1137.000,0.500,1254.000,1.000,482.000,5.000,0
"03/03/08","22:12:58",49037.000,"cc",28402.809,1,0.100,42335.000,0.200,3789.000,0.300,1188.000,0.500,1240.000,1.000,485.000,5.000,0
"03/03/08","22:13:04",63313.000,"cc",28257.682,1,0.100,54763.000,0.200,5510.000,0.300,1312.000,0.500,1262.000,1.000,466.000,5.000,0
"03/03/08","22:13:10",61601.000,"cc",28372.207,1,0.100,53025.000,0.200,5353.000,0.300,1400.000,0.500,1352.000,1.000,471.000,5.000,0
"03/03/08","22:13:16",60762.000,"cc",28254.635,1,0.100,51467.000,0.200,5530.000,0.300,1709.000,0.500,1533.000,1.000,523.000,5.000,0
"03/03/08","22:13:22",61779.000,"cc",28303.465,1,0.100,52590.000,0.200,5405.000,0.300,1701.000,0.500,1573.000,1.000,510.000,5.000,0
"03/03/08","22:13:28",61472.000,"cc",28321.459,1,0.100,52331.000,0.200,5536.000,0.300,1612.000,0.500,1453.000,1.000,540.000,5.000,0
"03/03/08","22:13:34",68210.000,"cc",28290.307,1,0.100,58536.000,0.200,6291.000,0.300,1491.000,0.500,1406.000,1.000,486.000,5.000,0
"03/03/08","22:13:40",59181.000,"cc",28317.459,1,0.100,48000.000,0.200,5993.000,0.300,2361.000,0.500,2094.000,1.000,733.000,5.000,0
"03/03/08","22:13:46",73705.000,"cc",28302.410,1,0.100,63708.000,0.200,6824.000,0.300,1403.000,0.500,1290.000,1.000,478.000,5.000,2.000
"03/03/08","22:13:52",61731.000,"cc",28285.947,1,0.100,50475.000,0.200,6206.000,0.300,2283.000,0.500,2075.000,1.000,692.000,5.000,0
"03/03/08","22:13:58",62331.000,"cc",28313.988,1,0.100,52237.000,0.200,5786.000,0.300,1955.000,0.500,1734.000,1.000,618.000,5.000,1.000
"03/03/08","22:14:04",56435.000,"cc",28388.393,1,0.100,46717.000,0.200,5258.000,0.300,1973.000,0.500,1880.000,1.000,607.000,5.000,0
"03/03/08","22:14:10",54599.000,"cc",28282.484,1,0.100,44709.000,0.200,5274.000,0.300,2052.000,0.500,1901.000,1.000,663.000,5.000,0
"03/03/08","22:14:16",55455.000,"cc",28294.303,1,0.100,43770.000,0.200,5715.000,0.300,2730.000,0.500,2445.000,1.000,795.000,5.000,0
"03/03/08","22:14:22",58854.000,"cc",28287.938,1,0.100,44138.000,0.200,6797.000,0.300,3683.000,0.500,3177.000,1.000,1059.000,5.000,0
"03/03/08","22:14:28",59417.000,"cc",28351.826,1,0.100,44085.000,0.200,7079.000,0.300,3795.000,0.500,3375.000,1.000,1083.000,5.000,0
"03/03/08","22:14:34",55022.000,"cc",28339.219,1,0.100,42031.000,0.200,6066.000,0.300,3134.000,0.500,2808.000,1.000,983.000,5.000,0
"03/03/08","22:14:40",56625.000,"cc",28351.348,1,0.100,42870.000,0.200,6227.000,0.300,3474.000,0.500,3016.000,1.000,1038.000,5.000,0
"03/03/08","22:14:46",54983.000,"cc",28328.574,1,0.100,42464.000,0.200,5978.000,0.300,3071.000,0.500,2618.000,1.000,852.000,5.000,0
"03/03/08","22:14:52",55895.000,"cc",28337.709,1,0.100,44813.000,0.200,5468.000,0.300,2552.000,0.500,2295.000,1.000,767.000,5.000,0
"03/03/08","22:14:58",62791.000,"cc",28328.354,1,0.100,50702.000,0.200,6390.000,0.300,2591.000,0.500,2288.000,1.000,820.000,5.000,0
"03/03/08","22:15:04",67123.000,"cc",28284.945,1,0.100,54696.000,0.200,6866.000,0.300,2538.000,0.500,2223.000,1.000,800.000,5.000,0
"03/03/08","22:15:10",56822.000,"cc",28332.330,1,0.100,45281.000,0.200,5800.000,0.300,2645.000,0.500,2334.000,1.000,762.000,5.000,0
"03/03/08","22:15:16",59918.000,"cc",28316.910,1,0.100,48745.000,0.200,5958.000,0.300,2282.000,0.500,2153.000,1.000,780.000,5.000,0
"03/03/08","22:15:22",54215.000,"cc",28306.637,1,0.100,43751.000,0.200,5224.000,0.300,2401.000,0.500,2107.000,1.000,732.000,5.000,0
"03/03/08","22:15:28",62122.000,"cc",28364.340,1,0.100,51937.000,0.200,5836.000,0.300,1907.000,0.500,1796.000,1.000,646.000,5.000,0
"03/03/08","22:15:34",55197.000,"cc",28295.537,1,0.100,45268.000,0.200,5190.000,0.300,2006.000,0.500,2003.000,1.000,730.000,5.000,0
"03/03/08","22:15:40",66029.000,"cc",28364.391,1,0.100,54818.000,0.200,6482.000,0.300,2066.000,0.500,1963.000,1.000,700.000,5.000,0
"03/03/08","22:15:46",58535.000,"cc",28309.723,1,0.100,47344.000,0.200,5757.000,0.300,2377.000,0.500,2246.000,1.000,811.000,5.000,0
"03/03/08","22:15:52",72728.000,"cc",28345.752,1,0.100,61307.000,0.200,7120.000,0.300,1858.000,0.500,1801.000,1.000,642.000,5.000,0
"03/03/08","22:15:58",56341.000,"cc",28288.660,1,0.100,46443.000,0.200,5246.000,0.300,2086.000,0.500,1895.000,1.000,671.000,5.000,0
"03/03/08","22:16:04",60592.000,"cc",28266.410,1,0.100,49675.000,0.200,5941.000,0.300,2183.000,0.500,2031.000,1.000,762.000,5.000,0
"03/03/08","22:16:10",60565.000,"cc",28359.121,1,0.100,50889.000,0.200,5493.000,0.300,1834.000,0.500,1722.000,1.000,626.000,5.000,1.000
"03/03/08","22:16:16",56143.000,"cc",28307.359,1,0.100,46571.000,0.200,5130.000,0.300,1956.000,0.500,1815.000,1.000,671.000,5.000,0
"03/03/08","22:16:22",57993.000,"cc",28362.113,1,0.100,47504.000,0.200,5554.000,0.300,2167.000,0.500,2010.000,1.000,758.000,5.000,0
"03/03/08","22:16:28",54532.000,"cc",28304.053,1,0.100,44419.000,0.200,5172.000,0.300,2217.000,0.500,2002.000,1.000,722.000,5.000,0
"03/03/08","22:16:34",56220.000,"cc",28258.320,1,0.100,45934.000,0.200,5269.000,0.300,2243.000,0.500,2014.000,1.000,760.000,5.000,0
"03/03/08","22:16:40",54226.000,"cc",28249.012,1,0.100,43719.000,0.200,5136.000,0.300,2295.000,0.500,2228.000,1.000,848.000,5.000,0
"03/03/08","22:16:46",58667.000,"cc",28347.479,1,0.100,45756.000,0.200,6228.000,0.300,2971.000,0.500,2750.000,1.000,962.000,5.000,0
"03/03/08","22:16:52",60353.000,"cc",28330.027,1,0.100,48622.000,0.200,6055.000,0.300,2513.000,0.500,2343.000,1.000,820.000,5.000,0
"03/03/08","22:16:58",59029.000,"cc",28301.152,1,0.100,48964.000,0.200,5549.000,0.300,2041.000,0.500,1815.000,1.000,660.000,5.000,0